AMC-14

Last updated on Tue Oct 28 2025 00:02:47 GMT+0000 (Coordinated Universal Time)

1 32708U 08011A 25298.90916287 .00000117 00000+0 00000+0 0 9995 2 32708 23.7226 23.3442 0037230 353.5979 15.1921 1.00269530 65824
UTC large
Height (km)
Speed (km/s)
/
Latitude / Longitude
Inclination (degrees)
Orbital Period (minutes)
Azimuth
Elevation
Range (km)
Doppler Factor

Next 0 passes for location: London (51.5072 / 0.1276)

Sorry there are no passes over London.